Andover, NJ

4:21 PM EDT on August 21, 2017 (GMT -0400)
Andover

Weather History for K12N - November, 2013

Change the Weather History Date:

Thursday, November 7, 2013

  Actual Average (KFWN) Record (KFWN)
Temperature  
Mean Temperature 46 °F -  
Max Temperature 57 °F 52 °F 73 °F (1948)
Min Temperature 33 °F 30 °F 18 °F (1967)
Degree Days  
Heating Degree Days 19    
Moisture  
Dew Point 44 °F    
Average Humidity 80    
Maximum Humidity 93    
Minimum Humidity 60    
Precipitation  
Precipitation 0.15 in - - ()
Sea Level Pressure  
Sea Level Pressure 29.90 in    
Wind  
Wind Speed 6 mph (WSW)    
Max Wind Speed 10 mph    
Max Gust Speed 20 mph    
Averages and records for this station are not official NWS values.
T = Trace of Precipitation, MM = Missing Value Source: NWS Daily Summary

Daily Weather History Graph

Daily Weather History Graph

Search for Another Location

Airport or City:

Trip Planner

Search our weather history database for the weather conditions in past years. The results will help you decide how hot, cold, wet, or windy it might be!

Date:

Astronomy

Nov. 07, 2013 Rise Set
Actual Time 6:37 AM EST 4:47 PM EST
Civil Twilight 6:08 AM EST 5:16 PM EST
Nautical Twilight 5:35 AM EST 5:49 PM EST
Astronomical Twilight 5:03 AM EST 6:21 PM EST
Moon 10:44 AM EST (11/7) 8:56 PM EST (11/7)
Length of Visible Light 11h 08m
Length of Day
10h 10m
Waxing Crescent, 22% of the Moon is Illuminated
Nov 7
Waxing Crescent
Nov 10
First Quarter
Nov 17
Full
Nov 25
Last Quarter
Dec 2
New

Hourly Weather History & Observations

Time (EST) Temp. Windchill Dew Point Humidity Pressure Visibility Wind Dir Wind Speed Gust Speed Precip Events Conditions
12:54 AM 55.0 °F - 48.0 °F 77% 30.03 in - SSW 8.1 mph - N/A   Unknown
1:54 AM 55.0 °F - 50.0 °F 83% 30.00 in - SW 4.6 mph - N/A   Unknown
2:54 AM 55.0 °F - 51.1 °F 86% 29.97 in - SW 5.8 mph - N/A   Unknown
3:54 AM 55.9 °F - 51.1 °F 84% 29.94 in - SSW 5.8 mph - N/A   Unknown
4:54 AM 57.0 °F - 52.0 °F 83% 29.90 in - Variable 4.6 mph - N/A   Unknown
5:54 AM 57.9 °F - 53.1 °F 84% 29.87 in - South 9.2 mph 18.4 mph N/A   Unknown
6:54 AM 57.9 °F - 53.1 °F 84% 29.86 in - SSW 6.9 mph - N/A   Unknown
7:54 AM 57.9 °F - 53.1 °F 84% 29.86 in - SW 9.2 mph - N/A   Unknown
8:54 AM 57.0 °F - 54.0 °F 89% 29.86 in - SW 4.6 mph - 0.01 in   Unknown
9:54 AM 57.0 °F - 55.0 °F 93% 29.84 in - SW 6.9 mph - 0.01 in   Unknown
10:54 AM 57.0 °F - 54.0 °F 89% 29.83 in - SW 4.6 mph - N/A   Unknown
11:54 AM 57.9 °F - 54.0 °F 87% 29.78 in - Calm Calm - N/A   Unknown
12:54 PM 53.1 °F - 48.0 °F 83% 29.82 in - Calm Calm - 0.03 in   Unknown
1:54 PM 50.0 °F - 46.0 °F 86% 29.84 in - North 9.2 mph - 0.07 in   Unknown
2:54 PM 46.9 °F - 41.0 °F 80% 29.85 in - North 10.4 mph 19.6 mph 0.03 in   Unknown
3:54 PM 48.0 °F - 37.9 °F 68% 29.87 in - Variable 4.6 mph - N/A   Unknown
4:54 PM 46.9 °F - 37.0 °F 68% 29.89 in - Variable 5.8 mph - N/A   Unknown
5:54 PM 45.0 °F 40.6 °F 33.1 °F 63% 29.92 in - North 8.1 mph - N/A   Unknown
6:54 PM 43.0 °F 39.5 °F 30.9 °F 62% 29.95 in - Variable 5.8 mph - N/A   Unknown
7:54 PM 42.1 °F 39.2 °F 28.9 °F 60% 29.95 in - Variable 4.6 mph - N/A   Unknown
8:54 PM 41.0 °F 39.0 °F 30.0 °F 65% 29.96 in - NNW 3.5 mph - N/A   Unknown
9:54 PM 37.9 °F - 30.9 °F 76% 29.96 in - Calm Calm - N/A   Unknown
10:54 PM 35.1 °F - 32.0 °F 89% 29.96 in - Calm Calm - N/A   Unknown
11:54 PM 33.1 °F - 30.0 °F 89% 29.96 in - Calm Calm - N/A   Unknown